User: anonymous   Login
Location: Zapote
(9.9191°N, 84.0597°W)
Time: 13:56:29
(UTC-06:00)
Language:

Courier 1B - Orbit

View from above orbital plane
View from above orbital plane
View from above satellite
View from above satellite

Ground track
Ground track

The orbit data is extracted from the following two-line orbital elements,

1 00058U 60013A   21062.72702310  .00000088  00000-0  80583-5 0  9991
2 00058  28.3256 219.2669 0165030  55.7855 305.8210 13.46325599973584
Epoch (UTC): 03 March 2021 17:26:54
Eccentricity: 0.0165030
inclination: 28.3256°
perigee height: 962 km
apogee height: 1209 km
right ascension of ascending node: 219.2669°
argument of perigee: 55.7855°
revolutions per day: 13.46325599
mean anomaly at epoch: 305.8210°
orbit number at epoch: 97358

The dashed part of the orbit path shows where the satellite is in the earth's shadow,  

DLR